Preview of NWS' New Version of Forecast
This preview is not operational and should not be used for support decisions.

Regional Weather Roundup (RWR)

Issued by National Weather Service (NWS)

                            
000
ASUS42 KTBW 210619
RWRFL 
FLORIDA REGIONAL WEATHER ROUNDUP
NATIONAL WEATHER SERVICE TAMPA BAY RUSKIN FL
200 AM EDT SAT SEP 21 2019

NOTE: "FAIR" INDICATES FEW OR NO CLOUDS BELOW 12,000 FEET WITH NO
SIGNIFICANT WEATHER AND/OR OBSTRUCTIONS TO VISIBILITY.

FLZ001>010-012>015-112-114-115-210700-
PANHANDLE FLORIDA
  
CITY           SKY/WX    TMP DP  RH WIND       PRES   REMARKS
PENSACOLA      FAIR      75  74  96 N5        30.14F                  
PENSACOLA NAS  FAIR      74  72  93 N5        30.13F                  
MILTON NAS     FAIR      67  64  90 N5        30.16S                  
CRESTVIEW      FAIR      65  62  90 CALM      30.18S                  
DUKE FIELD     FAIR      69  62  77 E3        30.16S                  
VALPARAISO     FAIR      76  62  61 E7        30.15S                  
MARY ESTHER    CLEAR     71  67  89 NE6       30.14S                  
TRI COUNTY     FAIR      71  61  70 CALM      30.20                   
PANAMA CITY    FAIR      75  63  66 E7        30.16R                  
TYNDALL AFB    FAIR      74  63  67 E7        30.15R                  
APALACHICOLA   FAIR      80  67  64 E15       30.15R                  

STATION/POSITION SKY/WX   TEMP    WIND        PRES    WAVE   SWELL
                          AIR SEA DIR/SP/G            HT/PER HT/PER
                          (F)     (DEG/KT/KT) (MB)    (FT/S) (FT/S)
30.1N   87.6W              84 85  100/ 14/ 17 1020.1F   5/ 7   3/ 7
29.2N   88.2W              83     100/ 17/ 21 1019.3F   6/ 8   3/ 8
28.8N   86.0W                 85  120/ 19/ 25 1019.3F   6/ 7
PANAMA CITY BEAC              84   90/  9/ 13 1021.6R
TOWER C                    80     110/ 24/ 26 1020.8R
28.5N   84.5W              82      90/ 19/ 25 1020.1F   7/ 7

$$
FLZ011-016>038-118-127-128-134-139-239-210700-
NORTH FLORIDA
  
CITY           SKY/WX    TMP DP  RH WIND       PRES   REMARKS
MARIANNA       FAIR      73  66  78 E6        30.18S                  
TALLAHASSEE    FAIR      73  68  84 E7        30.19S                  
PERRY          FAIR      71  70  96 NE5       30.19S                  
LIVE OAK       PTCLDY    70  70 100 NE6       30.20S                  
CROSS CITY       N/A     70  66  88 N5        30.17S                  
LAKE CITY      MOCLDY    70  64  83 E6        30.20S                  
GAINESVILLE    FAIR      70  67  90 NE6       30.20S                  
WILLISTON      FAIR      70  68  93 NE5       30.17S                  
PALATKA        CLOUDY    70  66  88 CALM      30.18S                  
MAYPORT NAS    FAIR      80  65  59 E17       30.19S                  
JACKSONVILLE   FAIR      71  65  81 NE5       30.19S                  
JAX NAS        FAIR      75  68  78 E7        30.19F                  
JAX CECIL      CLOUDY    72  70  94 CALM      30.19S                  
FERNANDINA BEA FAIR      78  64  62 E12       30.20S                  
ST AUGUSTINE   FAIR     N/A N/A N/A E18       30.18F                  
PALM COAST     FAIR      77  64  63 E9        30.16F                  

STATION/POSITION SKY/WX   TEMP    WIND        PRES    WAVE   SWELL
                          AIR SEA DIR/SP/G            HT/PER HT/PER
                          (F)     (DEG/KT/KT) (MB)    (FT/S) (FT/S)
SHELL POINT      NOT AVBL
KEATON BEACH               71      40/  5/  7 1021.8F
CEDAR KEY                  74      60/ 10/ 11 1021.2F
FERNANDINA                    81   90/  5/ 10 1023.6R
30.7N   81.3W                 82                N/A     6/13   3/13
MAYPORT                       81   90/ 10/ 15 1022.9R
31.4N   80.9W              80 81  110/ 14/ 16 1023.1R   5/ 9   3/ 9
ST AUGUSTINE               80 80  100/ 19/ 24 1021.9F

$$
FLZ040-043>046-052-053-057-058-063-144-210700-
INTERIOR CENTRAL FLORIDA
  
CITY           SKY/WX    TMP DP  RH WIND       PRES   REMARKS
OCALA          FAIR      71  68  90 NE3       30.17F                  
LEESBURG       FAIR      72  66  81 NE5       30.16F                  
SANFORD        FAIR      73  66  78 E5        30.14F                  
ORLANDO EXEC   FAIR      73  65  75 NE6       30.14F                  
ORLANDO INTL   FAIR      73  64  73 NE8       30.14F                  
KISSIMMEE      FAIR      76  67  73 E10       30.14F                  
WINTER HAVEN   FAIR      74  67  78 NE9       30.13F                  
BARTOW           N/A     73  68  83 NE7       30.12S                  
SEBRING        FAIR      71  68  91 NE6       30.11F                  
OKEECHOBEE     FAIR      72  66  83 NE3       30.09S                  

$$
FLZ041-047-054-059-064-141-147-210700-
EAST CENTRAL FLORIDA
  
CITY           SKY/WX    TMP DP  RH WIND       PRES   REMARKS
DAYTONA BEACH  MOCLDY    79  65  62 E13       30.15F                  
DELAND         FAIR      72  64  78 CALM      30.15F                  
JFK SPACE CTR  CLEAR     77  64  65 E13       30.13F                  
CAPE CANAVERAL FAIR      78  65  63 E10       30.12F                  
PATRICK AFB    FAIR      80  65  60 E18       30.12S                  
MELBOURNE      FAIR      80  62  54 E13       30.12S                  
VERO BEACH     CLOUDY    80  65  59 E16G23    30.11S                  
FT PIERCE      CLOUDY    79  65  62 E14G22    30.10S                  
STUART         FAIR      79  64  61 E16G23    30.10F                  

STATION/POSITION SKY/WX   TEMP    WIND        PRES    WAVE   SWELL
                          AIR SEA DIR/SP/G            HT/PER HT/PER
                          (F)     (DEG/KT/KT) (MB)    (FT/S) (FT/S)
28.5N   80.2W              80 83   80/ 17/ 23 1020.6F  10/13   7/13
28.9N   78.5W              79 81   80/ 21/ 27 1021.4F  11/14  10/14
TRIDENT PIER                  82   60/ 12/ 17 1021.8F
28.4N   80.5W                 82                N/A     6/14   2/14
27.5N   80.2W                 82                N/A     9/13   5/13

$$
FLZ050-056-061-142-242-148-248-149-249-151-251-155-255-
160-260-210700-
WEST CENTRAL FLORIDA
  
CITY           SKY/WX    TMP DP  RH WIND       PRES   REMARKS
CRYSTAL RIVER  FAIR      68  64  88 CALM      30.15F                  
INVERNESS      FAIR      70  70 100 NE5       30.15F                  
BROOKSVILLE    FAIR      71  65  81 NE6       30.14F                  
CLEARWATER AIR FAIR      73  64  73 E7        30.11F                  
ST PETE CLEARW FAIR      77  66  68 E9        30.11F                  
TAMPA INTL     FAIR      74  65  73 NE7       30.12F                  
TAMPA EXEC     FAIR      70  68  94 E5        30.12F                  
PLANT CITY     FAIR      72  68  88 NE5       30.14F                  
MACDILL AFB    FAIR      74  66  75 E10       30.11F                  
PETER O KNIGHT MOCLDY    73  68  83 E8        30.11F                  
ST PETERSBURG  FAIR      78  69  73 E18       30.10S                  
SARASOTA       FAIR      75  66  73 E8        30.08S                  
VENICE         MOCLDY    73  68  83 NE10      30.09F                  

STATION/POSITION SKY/WX   TEMP    WIND        PRES    WAVE   SWELL
                          AIR SEA DIR/SP/G            HT/PER HT/PER
                          (F)     (DEG/KT/KT) (MB)    (FT/S) (FT/S)
27.3N   84.2W                 85                N/A     9/ 7
CLEARWATER BEACH              85   50/  7/ 11 1020.1F
MIDDLE TAMPA BAY                   80/ 14/ 16 1019.7F
VENICE                     74 85   40/  7/  9 1018.7F

$$
FLZ066-069-070-075>078-162-262-165-265-210700-
SOUTHWEST FLORIDA AND KEYS
  
CITY           SKY/WX    TMP DP  RH WIND       PRES   REMARKS
PUNTA GORDA    FAIR      71  70  96 NE8       30.10S                  
FT MYERS       FAIR      75  68  78 NE9       30.06S                  
SOUTHWEST INTL FAIR      74  69  85 NE9       30.07S                  
NAPLES         MOCLDY    78  71  79 NE16      30.04F                  
MARCO ISLAND   FAIR      75  70  84 NE10      30.05F                  
IMMOKALEE      CLOUDY    75  70  83 NE10      30.05S                  
MARATHON       FAIR      82  76  81 E17G23    29.98S                  
KEY WEST NAS   MOCLDY    81  76  84 NE14      29.99F                  
KEY WEST INTL  MOCLDY    80  75  84 E9        29.99F                  

STATION/POSITION SKY/WX   TEMP    WIND        PRES    WAVE   SWELL
                          AIR SEA DIR/SP/G            HT/PER HT/PER
                          (F)     (DEG/KT/KT) (MB)    (FT/S) (FT/S)
NAPLES                        83   50/  8/ 13 1017.5F
26.0N   85.6W              80 86   90/ 21/ 31 1017.2R  10/ 8
DRY TORTUGAS               82      80/ 28/ 31 1015.3F
SAND KEY                   77      80/ 20       N/A
SOMBRERO KEY               83      80/ 24/ 31 1014.6
LONG KEY                   81                 1014.0

$$
FLZ067-068-071>074-168-172>174-210700-
SOUTHEAST FLORIDA 
  
CITY           SKY/WX    TMP DP  RH WIND       PRES   REMARKS
W PALM BEACH   MOCLDY    79  68  69 E16G28    30.08S                  
FT LAUDER-EXEC MOCLDY    80  68  66 NE16G26   30.04F                  
FT LAUDERDALE  FAIR      80  70  71 E16G25    30.03F                  
POMPANO BEACH  MOCLDY    81  69  67 E21G28    30.05F                  
PEMBROKE PINES CLOUDY    81  69  67 NE16G28   30.05F                  
OPA LOCKA      MOCLDY    80  71  74 E15       30.04F                  
MIAMI          MOCLDY    82  68  62 NE18G26   30.03F                  
WEST KENDALL   RAIN      80  72  76 E17G23    30.02S                  
HOMESTEAD      MOCLDY    81  73  77 NE16G28   30.00F                  

STATION/POSITION SKY/WX   TEMP    WIND        PRES    WAVE   SWELL
                          AIR SEA DIR/SP/G            HT/PER HT/PER
                          (F)     (DEG/KT/KT) (MB)    (FT/S) (FT/S)
VIRGINIA KEY                  83   40/ 21/ 27 1016.5F
LAKE WORTH                    81   80/ 22/ 25 1019.4F
FOWEY ROCKS                82 84   60/ 29/ 31 1016.5F
SETTLEMENT POINT           80      70/ 22/ 24 1018.2F

$$